EW8956 Weather Reports


time (UTC)temp
F
wind
direction
speed
knots
gust
knots
rain 1hr
in
rain 24hr
in
rain mn
in
humidity
%
barometer
mb
20260901181553 94 219 0.0 2.6 0.00 1.13 0.00 46 1019.4
20260901180049 94 0 0.0 2.6 0.00 1.13 0.00 45 1019.4
20260901174601 93 0 0.0 1.7 0.00 1.13 0.00 48 1019.6
20260901173053 92 0 0.0 0.9 0.00 1.13 0.00 49 1019.6
20260901171555 92 0 0.0 1.7 0.00 1.13 0.00 50 1019.6
20260901170108 93 0 0.0 0.0 0.00 1.13 0.00 49 1019.7
20260901164602 92 0 0.0 2.6 0.00 1.13 0.00 51 1019.9
20260901163053 90 0 0.0 0.9 0.00 1.13 0.00 57 1020.1
20260901161555 90 0 0.0 0.9 0.00 1.13 0.00 56 1020.4
20260901160054 89 0 0.0 1.7 0.00 1.13 0.00 56 1020.5
20260901154608 90 169 0.0 0.9 0.00 1.13 0.00 58 1020.6
20260901153052 88 0 0.0 1.7 0.00 1.13 0.00 59 1020.9
20260901151556 88 0 0.0 0.0 0.00 1.13 0.00 62 1021.0
20260901150103 87 0 0.0 0.0 0.00 1.13 0.00 64 1021.1
20260901144552 86 0 0.0 0.0 0.00 1.13 0.00 66 1021.2
20260901143051 85 0 0.0 0.0 0.00 1.13 0.00 67 1021.1
20260901141556 85 0 0.0 0.0 0.00 1.13 0.00 69 1021.1
20260901140105 83 0 0.0 0.0 0.00 1.13 0.00 75 1021.1
20260901134548 81 0 0.0 0.0 0.00 1.13 0.00 78 1021.0
20260901133053 80 0 0.0 0.0 0.00 1.13 0.00 81 1021.0
20260901131555 78 0 0.0 0.0 0.00 1.13 0.00 83 1021.0
20260901130049 76 0 0.0 0.0 0.00 1.13 0.00 86 1020.9
20260901124604 75 0 0.0 0.0 0.00 1.13 0.00 89 1020.9
20260901123052 75 0 0.0 0.0 0.00 1.13 0.00 92 1020.9
20260901121600 73 0 0.0 0.0 0.00 1.13 0.00 94 1020.9
20260901120104 72 0 0.0 0.0 0.00 1.13 0.00 95 1020.7
20260901114556 71 0 0.0 0.0 0.00 1.13 0.00 94 1020.7
20260901113057 71 0 0.0 0.0 0.00 1.13 0.00 94 1020.5
20260901111601 71 0 0.0 0.0 0.00 1.13 0.00 94 1020.3
20260901110059 71 0 0.0 0.0 0.00 1.13 0.00 94 1020.3
20260901104557 71 0 0.0 0.0 0.00 1.13 0.00 94 1019.9
20260901103051 71 0 0.0 0.0 0.00 1.13 0.00 94 1019.7
20260901101550 71 0 0.0 0.0 0.00 1.13 0.00 94 1019.9
20260901100056 71 0 0.0 0.0 0.00 1.13 0.00 94 1019.8
20260901094554 71 0 0.0 0.0 0.00 1.13 0.00 94 1019.7
20260901093052 71 0 0.0 0.0 0.00 1.13 0.00 94 1019.8
20260901091557 71 0 0.0 0.0 0.00 1.13 0.00 94 1019.7
20260901090054 71 0 0.0 0.0 0.00 1.13 0.00 94 1019.6
20260901084619 72 0 0.0 0.0 0.00 1.13 0.00 94 1019.8
20260901083048 72 0 0.0 0.0 0.00 1.13 0.00 94 1020.0
20260901081545 72 0 0.0 0.0 0.00 1.13 0.00 94 1019.9
20260901080056 72 0 0.0 0.0 0.00 1.13 0.00 94 1019.9
20260901074558 72 0 0.0 0.0 0.00 1.13 0.00 94 1019.9
20260901073049 72 0 0.0 0.0 0.00 1.13 0.00 94 1020.0
20260901071555 72 0 0.0 0.0 0.00 1.13 0.00 94 1020.2
20260901070056 72 0 0.0 0.0 0.00 1.13 0.00 94 1020.3
20260901064548 72 0 0.0 0.0 0.00 1.13 0.00 94 1020.2
20260901063107 72 0 0.0 0.0 0.00 1.13 0.00 94 1020.3
20260901061555 72 0 0.0 0.0 0.00 1.13 0.00 94 1020.4
20260901060048 73 0 0.0 0.0 0.00 1.13 0.00 94 1020.5
20260901054553 73 0 0.0 0.0 0.00 1.13 0.00 94 1020.5
20260901053056 73 0 0.0 0.0 0.00 1.13 0.00 93 1020.6
20260901051619 73 0 0.0 0.0 0.00 1.13 0.00 93 1020.5
20260901044555 73 0 0.0 0.0 0.00 1.13 0.00 93 1020.5
20260901043056 73 0 0.0 0.0 0.00 1.13 0.00 93 1020.6
20260901041552 74 0 0.0 0.0 0.00 1.13 0.00 93 1020.6
20260901040049 74 0 0.0 0.0 0.00 1.13 0.00 93 1020.6
20260901034604 74 0 0.0 0.0 0.00 1.13 1.13 93 1020.5
20260901033109 74 0 0.0 0.0 0.00 1.13 1.13 93 1020.6
20260901031549 74 0 0.0 0.0 0.00 1.13 1.13 93 1020.6
20260901030048 74 0 0.0 0.0 0.00 1.13 1.13 93 1020.6
20260901024600 74 0 0.0 0.0 0.00 1.13 1.13 93 1020.5
20260901023055 75 0 0.0 0.0 0.00 1.13 1.13 92 1020.5
20260901021551 75 0 0.0 0.0 0.00 1.13 1.13 92 1020.5
20260901020051 75 0 0.0 0.0 0.00 1.13 1.13 92 1020.5
20260901014600 76 0 0.0 0.0 0.00 1.13 1.13 92 1020.4
20260901013052 76 0 0.0 0.0 0.00 1.13 1.13 92 1020.1
20260901011549 76 0 0.0 0.0 0.00 1.13 1.13 91 1020.0
20260901010049 76 0 0.0 0.0 0.00 1.13 1.13 91 1019.7
20260901004612 76 0 0.0 0.0 0.00 1.13 1.13 91 1019.7
20260901003054 76 0 0.0 0.0 0.00 1.13 1.13 90 1019.5
20260901001554 77 0 0.0 0.0 0.00 1.13 1.13 89 1019.4
20260901000058 78 0 0.0 0.0 0.00 1.13 1.13 88 1019.2
20260831234550 78 0 0.0 0.0 0.00 1.13 1.13 87 1019.3
20260831233048 79 0 0.0 0.0 0.00 1.13 1.13 84 1019.2
20260831231603 79 0 0.0 0.0 0.00 1.13 1.13 86 1019.4
20260831230056 79 0 0.0 0.0 0.00 1.13 1.13 84 1019.3
20260831224551 79 0 0.0 0.0 0.00 1.13 1.13 84 1019.4
20260831223049 79 0 0.0 0.0 0.00 1.13 1.13 84 1019.5
20260831221545 79 0 0.0 0.0 0.00 1.13 1.13 84 1019.8
20260831220054 79 0 0.0 1.7 0.00 1.13 1.13 83 1019.9
20260831214555 78 0 0.0 0.9 0.00 1.13 1.13 85 1019.7
20260831213049 77 0 0.0 1.7 0.00 1.13 1.13 87 1019.8
20260831211544 77 0 0.0 2.6 0.11 1.13 1.13 88 1019.9
20260831210052 75 0 0.0 1.7 0.64 1.13 1.13 91 1020.0
20260831204551 73 0 0.0 5.2 1.13 1.13 1.13 88 1020.2
20260831203054 73 175 0.9 11.3 1.13 1.13 1.13 89 1020.5
20260831201557 74 184 3.5 10.4 0.99 0.99 0.99 88 1021.2
20260831200058 78 121 2.6 7.0 0.46 0.46 0.46 78 1021.5
20260831194639 93 323 0.0 3.5 0.00 0.00 0.00 50 1020.2
20260831193058 91 0 0.0 5.2 0.00 0.00 0.00 51 1019.9
20260831191558 91 113 0.9 3.5 0.00 0.00 0.00 51 1020.1
20260831190116 91 0 0.0 0.0 0.00 0.00 0.00 54 1020.3
20260831184559 92 0 0.0 1.7 0.00 0.00 0.00 52 1020.5
20260831183100 91 0 0.0 3.5 0.00 0.00 0.00 54 1020.5